Hourly Data Report for April 20, 2018

KUGAARUK CLIMATE
NUNAVUT
Current Station Operator: ECCC - MSC

68°32'15.060" N
89°47'47.020" W
15.80 m
2303094
71407
NBB

Download Data

Hourly Data (April 2018)
Hourly Data Report for April 20, 2018
TIME
LST
Temp Definition
°C
Dew Point Definition
°C
Rel Hum Definition
%
Precip. Amount Definition
mm

Wind Dir Definition
10's deg

Wind Spd Definition
km/h
Visibility Definition
km
Stn Press Definition
kPa
Hmdx Definition


Wind Chill Definition


Weather Definition


00:00 -18.8 -21.6 79 0.0 24 30   101.91   -31 LegendNANA
01:00 -19.8 -22.6 78 0.0 24 23   101.97   -31 LegendNANA
02:00 -19.1 -22.2 76 0.0 22 19   101.99   -29 LegendNANA
03:00 -18.7 -21.9 76 0.0 21 29   101.94   -31 LegendNANA
04:00 -18.5 -22.1 73 0.0 13 7   101.97   -24 LegendNANA
05:00 -17.3 -20.9 74 0.0 18 11   101.98   -24 LegendNANA
06:00 -16.7 -20.8 70 0.0 3 9   101.91   -23 LegendNANA
07:00 -15.7 -20.3 68 0.0 13 15   101.83   -24 LegendNANA
08:00 -14.9 -19.3 69 0.0 14 29   101.69   -26 LegendNANA
09:00 -14.6 -17.7 77 0.0 14 35   101.55   -26 LegendNANA
10:00 -14.3 -16.1 86 0.2 15 45   101.42   -27 LegendNANA
11:00 -13.5 -15.4 86 0.0 15 43   101.31   -26 LegendNANA
12:00 -11.1 -13.0 86 0.2 16 31   101.21   -21 LegendNANA
13:00 -7.6 -10.0 83 0.0 17 32   101.17   -17 LegendNANA
14:00 -6.2 -9.2 79 0.0 19 26   101.13   -14 LegendNANA
15:00 -5.4 -8.6 78 0.0 20 28   101.11   -13 LegendNANA
16:00 -4.9 -8.0 79 0.0 20 24   101.10   -12 LegendNANA
17:00 -4.7 -7.5 81 0.0 20 17   101.10   -11 LegendNANA
18:00 -4.7 -7.3 82 0.0 19 15   101.12   -10 LegendNANA
19:00 -4.8 -7.3 83 0.0 18 14   101.09   -10 LegendNANA
20:00 -4.7 -7.1 83 0.0 17 17   101.06   -11 LegendNANA
21:00 -4.6 -7.1 83 0.0 18 18   101.00   -11 LegendNANA
22:00 -4.8 -7.3 83 0.0 33 5   100.96   -7 LegendNANA
23:00 -6.0 -7.5 89 0.0 4 9   100.91   -10 LegendNANA

Notes on Data Quality.

Legend

  • E = Estimated
  • M = Missing
  • NA = Not Available*
  • [empty] = Indicates an unobserved value
Date modified: